Wind_Speed
17 16 17 16 16 16 16 15 14 13 12 12 11 10 9 9 9 9 10 10 11 11 12 13 13 13 14 13 13 13 13 13 14 14 14 13 13 12 12 12 12 12 11 12
18 18 19 17 16 16 15 14 14 14 13 13 12 11 10 10 10 10 10 11 12 12 12 13 13 14 14 14 14 14 14 14 14 15 15 14 14 14 14 14 14 13 14 13
19 18 19 18 17 16 16 15 14 14 13 14 13 12 11 12 11 10 10 11 11 12 13 13 14 14 14 15 15 15 15 15 15 16 16 15 15 15 15 15 15 15 15 15
20 20 20 16 16 17 16 16 15 15 14 14 13 13 13 13 12 12 11 11 12 13 14 14 14 15 15 16 15 16 16 16 16 16 16 16 16 16 16 16 16 16 16 16
22 21 19 17 17 17 17 16 16 16 16 15 14 13 14 13 13 13 13 13 13 14 14 14 15 15 15 16 16 16 16 16 16 16 17 17 17 18 17 17 17 17 17 17
23 23 21 17 17 18 18 18 16 16 16 16 15 15 14 14 14 14 14 14 14 14 15 15 15 15 15 15 15 16 16 17 16 17 17 17 17 17 17 18 18 18 18 18
25 24 22 19 19 19 19 17 17 17 17 16 15 15 15 15 15 15 15 14 14 14 15 15 15 16 16 16 15 15 16 17 17 17 17 17 17 17 18 18 18 18 19 19
26 25 23 21 22 21 19 18 18 18 18 17 17 16 16 16 15 15 15 15 15 15 15 15 16 16 16 16 16 17 17 18 18 19 19 19 18 19 19 19 19 20 20 21
26 24 23 23 22 22 21 20 20 20 19 19 18 18 17 17 16 16 16 16 16 16 16 16 16 17 17 17 18 18 18 19 19 20 20 20 20 20 20 21 21 21 22 22
26 25 24 23 23 22 22 21 20 20 20 20 20 19 19 19 17 18 18 18 18 18 18 18 18 19 19 19 18 18 19 19 20 20 21 21 21 21 22 22 22 22 22 23
27 26 25 24 23 22 22 22 21 20 20 20 21 21 20 20 20 19 19 19 19 19 20 20 19 19 19 20 20 20 19 20 20 21 21 21 22 22 22 22 23 23 24 24
28 27 27 25 24 23 23 23 22 22 22 22 22 22 21 21 21 21 21 21 21 20 21 21 20 20 20 21 21 21 22 22 22 22 23 23 24 24 24 24 25 26 26 26
29 28 27 26 25 24 24 24 24 24 24 24 23 23 23 22 22 22 22 22 22 22 22 22 22 22 22 22 23 23 23 23 24 24 24 25 25 26 26 27 27 27 28 28
29 29 28 26 25 25 26 25 25 25 25 25 24 24 25 24 24 24 24 24 24 24 23 23 24 24 24 23 24 24 24 25 25 25 26 27 27 27 28 28 29 29 30 30
30 30 30 29 27 26 26 27 26 26 27 26 26 26 26 25 25 25 26 26 25 25 25 25 24 25 25 25 25 25 26 26 27 27 28 29 29 29 29 30 31 32 32 32
30 30 30 30 30 28 28 28 28 28 28 27 27 27 27 27 27 27 27 27 27 27 26 26 26 26 26 26 26 27 27 28 28 29 30 31 31 31 32 32 33 33 32 32
31 31 31 30 30 29 29 28 28 28 28 28 29 29 29 29 28 28 28 28 28 28 28 28 27 27 27 28 28 28 28 29 29 29 30 30 31 32 32 32 33 33 33 34
33 32 32 31 32 31 31 30 30 30 30 29 30 30 30 30 30 29 29 29 29 30 29 29 29 29 29 29 30 30 30 30 31 31 31 32 33 33 33 33 34 34 34 34
34 34 33 33 33 33 32 32 32 32 32 32 31 31 31 31 30 30 30 30 30 30 30 30 30 30 30 31 31 31 32 32 32 32 32 33 33 34 34 34 35 35 35 36
34 34 34 34 34 34 34 34 33 33 33 32 33 32 32 32 32 31 31 31 30 30 31 31 32 32 31 31 32 32 32 32 32 33 33 34 34 34 34 35 35 36 36 37
34 34 35 35 35 35 35 35 35 34 34 33 33 33 33 33 33 33 33 32 31 31 32 32 32 32 32 32 33 33 33 32 33 33 34 35 35 36 36 36 37 37 37 38
33 34 34 35 35 36 35 35 35 35 35 34 34 34 34 34 34 34 34 33 33 33 33 34 34 34 34 34 34 35 34 35 35 36 36 36 36 37 37 37 37 37 37 38
32 33 34 34 35 35 36 36 35 36 36 36 35 36 36 36 35 35 35 35 35 35 35 35 35 35 35 36 36 36 36 36 36 37 37 37 37 38 38 38 38 38 38 39
32 33 34 34 34 34 34 35 36 36 36 36 37 37 37 36 36 36 36 36 36 36 36 36 36 36 36 36 37 37 37 36 36 37 37 37 38 38 38 38 39 39 39 39
33 33 33 33 33 34 34 34 35 35 35 36 37 37 38 38 38 37 37 37 37 37 36 36 36 36 37 37 37 37 37 37 37 37 37 38 38 39 39 39 39 39 39 39
32 32 33 33 34 34 34 34 34 34 34 35 35 36 37 38 38 37 37 37 38 38 38 37 37 37 37 37 37 37 37 36 36 37 37 38 38 39 39 39 40 39 39 39
32 32 32 33 33 33 33 33 33 33 33 34 34 35 36 36 37 36 37 37 38 38 38 37 37 37 38 38 37 37 37 37 37 37 38 38 39 39 39 39 39 40 39 39
Wind_Direction
232 235 237 237 236 238 240 242 242 240 242 245 247 247 241 240 239 237 235 234 234 234 233 232 233 233 234 233 233 237 238 239 242 246 247 250 253 257 259 261 264 267 271 276
231 233 236 236 234 236 240 238 237 239 242 246 251 253 249 240 240 239 237 238 238 236 235 235 234 234 236 236 238 240 242 243 245 248 248 250 253 256 259 262 266 269 272 275
233 232 235 236 236 237 237 236 237 240 243 248 253 252 248 243 244 243 241 241 239 237 235 236 235 236 237 238 240 243 245 247 249 251 250 250 252 257 260 262 265 269 274 278
235 234 236 236 236 236 237 236 237 240 241 246 252 251 249 248 247 249 247 244 242 242 240 240 239 238 238 239 242 246 248 248 249 251 251 252 255 258 261 263 266 270 275 279
237 238 239 234 235 238 239 239 240 240 240 243 246 249 249 249 248 249 249 248 246 245 244 243 242 241 242 244 245 248 250 251 253 254 253 254 256 258 260 263 268 272 277 278
238 240 240 235 237 240 242 243 241 241 241 244 246 249 251 250 248 247 247 249 248 248 247 247 246 245 247 247 249 251 253 255 257 257 256 256 259 259 261 264 268 273 276 278
239 242 242 238 238 240 243 245 244 243 242 242 245 248 250 251 250 249 247 248 248 248 246 247 248 249 249 251 252 253 256 258 259 259 258 259 260 262 264 265 269 273 275 278
240 242 242 240 240 241 243 244 245 244 244 245 245 246 248 252 251 249 249 250 251 250 248 249 250 251 253 253 253 254 257 259 260 260 260 261 261 263 265 268 271 274 276 278
241 242 242 240 242 242 243 244 243 243 244 246 246 247 247 248 249 250 251 252 252 252 251 251 252 253 254 254 255 257 259 261 261 261 262 261 263 265 266 269 271 274 276 277
239 240 242 241 242 244 244 245 245 245 244 244 245 247 247 248 249 251 254 255 255 255 254 254 255 256 256 255 256 258 261 261 261 262 262 263 264 266 268 270 272 275 277 278
237 239 242 242 242 243 245 246 246 246 244 243 244 245 248 250 250 253 255 256 257 256 255 254 256 258 260 260 259 260 261 262 261 261 264 266 267 267 269 272 274 275 277 279
237 239 241 242 242 243 244 245 245 246 243 243 244 246 249 250 250 253 256 257 258 258 257 256 256 258 260 261 261 262 262 262 262 263 266 268 269 270 271 273 274 275 276 278
237 238 240 240 239 242 245 245 246 246 243 242 244 247 249 250 250 252 255 257 258 258 258 258 258 258 259 260 262 263 264 263 263 265 267 269 270 271 272 273 275 277 277 278
238 238 239 237 237 240 242 243 243 242 242 243 245 248 249 250 252 252 254 257 257 258 259 259 258 259 259 260 263 264 266 266 264 264 267 268 269 270 271 273 274 276 277 277
236 238 238 238 238 239 241 243 244 245 245 246 247 250 251 251 253 255 257 257 258 259 260 261 261 261 261 262 263 265 266 267 267 266 267 268 269 269 270 272 273 275 275 276
235 237 239 239 238 240 244 244 245 247 248 248 250 251 253 255 257 258 258 257 258 260 261 262 263 263 263 264 265 266 267 268 268 268 269 269 270 270 271 272 274 275 276 278
236 238 241 243 243 244 245 245 246 247 248 249 251 253 255 256 257 258 257 256 258 259 261 263 263 263 264 266 267 268 268 270 271 272 271 271 272 272 273 273 274 275 277 279
238 238 239 242 243 243 244 245 247 249 250 251 252 253 255 256 257 258 258 257 259 260 261 262 263 263 265 267 268 269 270 271 273 275 275 274 273 274 274 275 276 277 278 278
239 239 240 241 242 244 245 248 249 250 250 251 251 253 255 256 257 257 256 258 260 261 261 262 263 265 266 268 269 270 271 272 273 273 273 274 275 275 276 276 276 277 277 278
241 241 242 242 243 245 248 249 250 250 250 251 251 252 253 255 256 256 256 257 259 261 262 263 264 265 267 268 269 270 272 273 274 273 273 275 276 277 278 278 278 278 278 278
244 244 244 245 244 246 247 248 248 249 250 251 251 251 252 254 255 256 256 257 259 260 261 262 264 265 267 268 270 271 272 274 275 275 276 276 277 278 280 280 280 279 278 278
244 244 245 246 247 246 247 248 247 248 249 251 252 253 254 255 257 258 258 259 259 260 261 262 263 265 267 268 270 272 273 274 275 276 277 278 278 279 280 281 281 280 279 280
243 244 245 246 248 249 249 250 249 249 251 252 253 254 255 255 257 258 259 259 261 262 263 264 264 265 266 268 270 272 273 275 276 277 277 277 278 279 280 280 281 280 281 282
244 245 246 248 249 250 251 250 251 252 252 252 252 253 255 255 256 258 259 260 262 262 263 263 264 266 267 269 271 273 274 276 277 278 278 278 279 279 279 280 280 281 282 282
246 247 247 248 249 250 252 252 252 253 253 253 254 254 254 256 258 259 260 260 261 261 261 262 264 266 268 270 271 273 274 275 277 278 278 278 279 279 279 279 281 282 282 283
246 247 248 249 250 251 252 253 253 253 253 254 255 255 255 257 259 259 259 260 260 260 261 263 265 267 269 270 271 273 274 276 278 278 279 279 279 279 280 280 280 281 282 283
247 248 249 251 252 252 253 253 253 253 254 255 256 257 257 258 259 259 259 260 260 261 262 263 264 266 268 270 272 273 274 275 277 279 280 280 280 280 281 282 282 282 283 284
Height
5821 5823 5825 5826 5828 5829 5831 5832 5834 5836 5837 5839 5840 5840 5841 5842 5843 5844 5845 5846 5847 5848 5849 5850 5851 5853 5854 5855 5856 5857 5858 5859 5860 5861 5862 5863 5863 5863 5863 5863 5864 5864 5863 5863
5817 5819 5820 5821 5824 5825 5827 5828 5830 5831 5834 5835 5836 5837 5837 5839 5840 5841 5842 5843 5844 5845 5846 5847 5848 5849 5851 5852 5853 5854 5855 5856 5857 5857 5858 5859 5859 5860 5860 5860 5860 5860 5860 5859
5812 5814 5815 5817 5820 5821 5823 5824 5826 5828 5831 5831 5832 5833 5834 5835 5836 5837 5838 5839 5840 5841 5842 5844 5845 5846 5847 5848 5849 5850 5851 5852 5853 5853 5854 5855 5856 5856 5856 5856 5856 5856 5856 5855
5807 5810 5811 5817 5816 5817 5819 5821 5823 5824 5826 5827 5828 5829 5830 5831 5833 5834 5835 5835 5837 5837 5839 5840 5841 5842 5843 5844 5845 5846 5847 5847 5848 5849 5850 5850 5851 5852 5852 5852 5852 5852 5851 5851
5802 5804 5807 5811 5812 5813 5815 5817 5819 5820 5822 5823 5824 5825 5826 5828 5829 5830 5831 5832 5833 5834 5835 5836 5837 5838 5839 5840 5841 5841 5842 5843 5844 5844 5845 5846 5846 5847 5847 5847 5847 5847 5847 5846
5797 5799 5802 5807 5808 5808 5811 5812 5814 5816 5817 5819 5820 5821 5823 5824 5825 5826 5827 5828 5829 5830 5831 5832 5833 5834 5835 5836 5837 5837 5837 5838 5839 5840 5840 5841 5841 5841 5842 5842 5842 5842 5842 5841
5791 5793 5797 5802 5803 5804 5806 5809 5810 5811 5812 5814 5815 5818 5819 5820 5821 5822 5823 5824 5825 5825 5826 5827 5828 5829 5830 5831 5832 5833 5833 5834 5834 5834 5835 5835 5836 5836 5837 5837 5837 5837 5836 5835
5785 5787 5793 5795 5796 5799 5801 5803 5804 5805 5807 5809 5810 5812 5814 5815 5815 5817 5818 5819 5820 5821 5822 5823 5824 5825 5825 5826 5827 5827 5828 5828 5829 5829 5830 5830 5831 5831 5831 5831 5831 5831 5831 5830
5780 5784 5786 5787 5790 5792 5794 5796 5798 5800 5801 5803 5805 5807 5808 5810 5811 5812 5814 5815 5816 5817 5817 5818 5819 5820 5821 5821 5822 5822 5823 5823 5823 5824 5824 5825 5825 5826 5826 5826 5825 5825 5825 5824
5773 5776 5778 5781 5783 5785 5787 5789 5791 5793 5795 5797 5799 5801 5803 5804 5805 5807 5808 5809 5810 5811 5812 5813 5814 5815 5815 5816 5816 5817 5817 5817 5817 5818 5818 5819 5819 5819 5820 5820 5819 5819 5818 5818
5766 5769 5771 5774 5777 5779 5781 5783 5785 5787 5789 5791 5793 5795 5797 5798 5800 5801 5803 5804 5805 5806 5807 5808 5808 5809 5809 5810 5810 5811 5811 5811 5811 5812 5812 5813 5813 5813 5813 5813 5813 5812 5812 5811
5760 5763 5765 5768 5770 5773 5774 5776 5778 5780 5782 5784 5786 5788 5790 5792 5794 5795 5797 5798 5799 5800 5801 5802 5802 5803 5803 5804 5804 5804 5805 5805 5805 5806 5806 5806 5806 5806 5806 5806 5806 5805 5804 5803
5753 5755 5758 5761 5763 5765 5767 5769 5771 5773 5775 5777 5780 5782 5783 5785 5787 5789 5790 5791 5793 5794 5795 5795 5796 5797 5797 5797 5798 5798 5798 5798 5799 5799 5799 5799 5799 5799 5798 5798 5797 5797 5796 5795
5744 5747 5750 5753 5756 5758 5760 5762 5764 5766 5768 5770 5772 5774 5776 5778 5780 5781 5783 5784 5785 5787 5788 5789 5789 5790 5790 5791 5791 5791 5791 5791 5791 5791 5791 5791 5791 5791 5790 5790 5789 5788 5787 5786
5736 5739 5742 5745 5748 5750 5752 5755 5757 5759 5761 5763 5765 5767 5769 5771 5773 5774 5776 5777 5778 5779 5780 5781 5782 5782 5783 5783 5783 5783 5784 5783 5783 5783 5783 5783 5782 5782 5781 5781 5780 5780 5779 5777
5727 5730 5733 5736 5740 5742 5744 5747 5749 5751 5753 5755 5757 5759 5761 5763 5765 5767 5768 5769 5770 5771 5772 5773 5774 5774 5774 5775 5775 5775 5775 5775 5775 5774 5774 5773 5773 5773 5772 5771 5771 5770 5769 5768
5719 5722 5725 5728 5732 5734 5737 5739 5741 5743 5745 5747 5749 5751 5753 5755 5756 5758 5759 5761 5762 5763 5764 5764 5765 5765 5766 5766 5766 5766 5766 5766 5765 5765 5764 5764 5763 5763 5762 5762 5761 5760 5758 5757
5710 5714 5717 5720 5723 5726 5728 5731 5733 5735 5737 5739 5740 5742 5744 5746 5747 5749 5750 5752 5753 5754 5755 5755 5756 5756 5757 5757 5757 5757 5757 5756 5756 5755 5755 5754 5753 5753 5752 5751 5750 5749 5747 5746
5701 5704 5708 5711 5714 5716 5719 5722 5724 5726 5728 5729 5731 5733 5735 5736 5738 5739 5741 5742 5743 5744 5745 5746 5746 5747 5747 5747 5747 5747 5747 5747 5746 5745 5744 5744 5743 5742 5741 5740 5739 5737 5736 5735
5692 5695 5698 5701 5704 5707 5709 5712 5714 5716 5718 5720 5721 5723 5725 5726 5728 5729 5730 5732 5733 5734 5735 5736 5736 5737 5737 5737 5737 5737 5736 5736 5735 5735 5734 5733 5732 5731 5730 5729 5727 5726 5725 5723
5682 5685 5688 5691 5694 5696 5699 5701 5704 5705 5707 5709 5711 5713 5714 5716 5718 5719 5721 5722 5724 5724 5725 5725 5726 5727 5727 5727 5727 5727 5726 5725 5725 5724 5723 5722 5721 5720 5718 5717 5715 5714 5713 5711
5673 5676 5678 5681 5683 5686 5688 5691 5693 5695 5697 5698 5700 5702 5704 5706 5707 5709 5710 5712 5713 5713 5714 5715 5715 5716 5716 5716 5716 5716 5715 5715 5714 5713 5712 5710 5709 5708 5706 5705 5703 5702 5700 5699
5663 5665 5668 5670 5673 5675 5677 5680 5682 5684 5686 5688 5690 5691 5693 5694 5696 5698 5699 5701 5702 5702 5703 5703 5704 5704 5705 5705 5705 5704 5704 5703 5702 5701 5700 5699 5697 5696 5694 5693 5691 5690 5688 5686
5653 5655 5657 5660 5662 5664 5666 5668 5670 5672 5674 5676 5678 5680 5681 5683 5685 5686 5687 5689 5690 5691 5691 5692 5693 5693 5693 5693 5693 5692 5692 5691 5690 5689 5688 5687 5685 5684 5682 5681 5679 5677 5676 5674
5643 5645 5647 5649 5651 5653 5655 5657 5659 5661 5663 5665 5666 5668 5669 5671 5673 5674 5675 5677 5678 5678 5679 5680 5680 5681 5681 5681 5680 5680 5680 5679 5678 5677 5675 5674 5673 5671 5670 5668 5666 5665 5663 5661
5633 5635 5637 5639 5641 5643 5644 5646 5648 5650 5651 5653 5654 5656 5658 5659 5660 5662 5663 5664 5665 5666 5667 5667 5668 5668 5668 5668 5668 5668 5667 5667 5665 5664 5663 5662 5660 5659 5657 5655 5654 5652 5650 5648
5623 5625 5627 5629 5630 5632 5634 5635 5637 5639 5640 5642 5644 5645 5646 5647 5648 5650 5651 5652 5653 5653 5654 5655 5655 5656 5656 5656 5656 5655 5655 5654 5653 5652 5651 5649 5647 5646 5644 5643 5641 5639 5637 5635